Regional Weather Roundup
Issued by NWS Albany, NY

Home | Current Version | Previous Version | Text Only | Print | Product List | Glossary On
Versions: 1 2 3 4 5 6 7 8 9 10 11 12 13 14 15 16 17 18 19 20 21 22 23 24 25 26 27 28
000
ASUS41 KALY 230010
RWRALY

NEW YORK STATE HOURLY WEATHER ROUNDUP
NATIONAL WEATHER SERVICE ALBANY NY
800 PM EDT SUN OCT 22 2017

NOTE: "FAIR" INDICATES FEW OR NO CLOUDS BELOW 12,000 FEET WITH NO
SIGNIFICANT WEATHER AND/OR NO OBSTRUCTIONS TO VISIBILITY.

NYZ032-033-038>043-046>054-057>066-NYZ062>081-082-084-230100-
EAST


CITY           SKY/WX    TMP DP  RH WIND       PRES   REMARKS
ALBANY         MOCLDY    65  44  46 S6        30.32R
GLENS FALLS    CLEAR     48  44  86 CALM      30.31R
POUGHKEEPSIE   PTCLDY    63  44  50 CALM      30.34R
NEWBURGH       PTCLDY    66  45  45 VRB5      30.36R
MONTGOMERY     PTCLDY    55  48  77 CALM      30.34R
WHITE PLAINS   PTCLDY    58  48  69 CALM      30.37R
ISLIP          MOCLDY    59  56  89 E3        30.37F
NEW YORK CITY  MOCLDY    67  53  61 SE6       30.36R
CENTRAL PARK   PTCLDY    64  52  64 S6        30.39R
$$

NYZ005>009-017-018-044>046-055-056-230100-
CENTRAL


CITY           SKY/WX    TMP DP  RH WIND       PRES   REMARKS
FULTON         PTCLDY    66  49  54 SE5       30.23R
SYRACUSE       MOCLDY    60  49  66 E7        30.23S
ROME           PTCLDY    59  47  64 E7        30.28R
ELMIRA         PTCLDY    67  51  56 S6        30.26R
BINGHAMTON     PTCLDY    63  41  44 S10       30.30R
MONTICELLO     CLOUDY    61  44  53 CALM      30.37
$$

NYZ026>034-041>043-087-230100-
NORTH


CITY           SKY/WX    TMP DP  RH WIND       PRES   REMARKS
WATERTOWN      PTCLDY    56  52  86 CALM      30.22R
FORT DRUM      NOT AVBL
OGDENSBURG     FAIR      54  51  89 CALM      30.22S
MASSENA        PTCLDY    56  52  86 CALM      30.24S
SARANAC LAKE   CLEAR     50  44  80 CALM      30.28S
PLATTSBURGH    CLEAR     57  47  69 CALM      30.25R
$$

NYZ001>004-010>016-019>021-085-230100-
WEST


CITY           SKY/WX    TMP DP  RH WIND       PRES   REMARKS
NIAGARA FALLS  PTCLDY    66  51  58 CALM      30.15R
BUFFALO        MOCLDY    69  51  52 S6        30.16R
DUNKIRK        CLOUDY    58  53  84 S3        30.17R
JAMESTOWN      PTCLDY    64  49  57 S7        30.23R
WELLSVILLE     CLOUDY    65  49  56 S9        30.28R
ROCHESTER      MOCLDY    67  53  61 SE8       30.18S
PENN YAN       PTCLDY    61  49  64 S5        30.24R
$$

             KEY
       WCI = WIND CHILL INDEX
       VSB = VISIBILITY
       HX  = HEAT INDEX
$$




USA.gov is the U.S. government's official web portal to all federal, state and local government web resources and services.